Tracking 20093 objects as of 14-Dec-2019
HD Live streaming from Space Station
objects crossing your sky now

COSMOS 2251 DEB

Track COSMOS 2251 DEB now!
10-day predictions


NORAD ID: 37334
Int'l Code: 1993-036BLA
Perigee: 445.9 km
Apogee: 477.7 km
Inclination: 74.0 °
Period: 93.7 minutes
Semi major axis: 6832 km
RCS: 0.0066 m2 (small)
Launch date: June 16, 1993
Source: Commonwealth of Independent States (former USSR) (CIS)
Launch site: PLESETSK MISSILE AND SPACE COMPLEX (PKMTR)

Note: This is SATELLITE DEBRIS
aabbcc
Your satellite tracking list
Your tracking list is empty




NASA's NSSDC Master Catalog

Two Line Element Set (TLE):
1 37334U 93036BLA 19347.53000948  .00014692  00000-0  40155-3 0  9994
2 37334  74.0076  19.2972 0023238 295.8596  64.0214 15.37107887557302
Source of the keplerian elements: AFSPC